TimeAKST,TemperatureF,Dew PointF,Humidity,Sea Level PressureIn,VisibilityMPH,Wind Direction,Wind SpeedMPH,Gust SpeedMPH,PrecipitationIn,Events,Conditions,WindDirDegrees,DateUTC
12:55 AM,14.2,11.5,89,30.25,10.0,NNE,18.4,-,N/A,,Clear,30,2012-11-19 09:55:00
1:55 AM,11.8,10.2,93,30.26,10.0,NNE,17.3,-,N/A,,Clear,30,2012-11-19 10:55:00
2:55 AM,11.8,9.1,89,30.27,10.0,NE,16.1,-,N/A,,Clear,40,2012-11-19 11:55:00
3:55 AM,10.2,9.1,95,30.28,10.0,NE,15.0,-,N/A,,Clear,40,2012-11-19 12:55:00
4:55 AM,11.5,9.5,92,30.29,10.0,NE,16.1,-,N/A,,Clear,40,2012-11-19 13:55:00
5:55 AM,11.7,9.9,92,30.28,10.0,NE,16.1,-,N/A,,Clear,40,2012-11-19 14:55:00
6:55 AM,12.7,10.8,92,30.29,10.0,NE,15.0,-,N/A,,Clear,40,2012-11-19 15:55:00
7:55 AM,10.2,9.3,96,30.30,10.0,NE,16.1,-,N/A,,Clear,40,2012-11-19 16:55:00
8:55 AM,11.1,10.2,96,30.32,10.0,NE,13.8,-,N/A,Snow,Light Snow Showers,40,2012-11-19 17:55:00
9:55 AM,12.0,10.9,95,30.33,10.0,NNE,13.8,-,N/A,,Clear,30,2012-11-19 18:55:00
10:55 AM,11.3,9.5,92,30.32,10.0,NNE,13.8,-,N/A,,Clear,20,2012-11-19 19:55:00
11:55 AM,11.1,9.1,92,30.32,10.0,NNE,15.0,-,N/A,,Clear,30,2012-11-19 20:55:00
12:55 PM,10.4,8.6,92,30.32,10.0,NNE,16.1,-,N/A,,Clear,30,2012-11-19 21:55:00
1:55 PM,10.4,3.0,72,30.32,10.0,NE,16.1,-,N/A,,Clear,40,2012-11-19 22:55:00
2:55 PM,10.2,-0.2,63,30.32,10.0,NE,13.8,-,N/A,,Clear,40,2012-11-19 23:55:00
3:55 PM,8.1,-2.6,62,30.32,10.0,NNE,16.1,-,N/A,,Clear,30,2012-11-20 00:55:00
4:55 PM,9.1,-4.5,54,30.32,10.0,NNE,16.1,-,N/A,,Clear,30,2012-11-20 01:55:00
5:55 PM,5.5,-2.6,69,30.32,10.0,NE,18.4,-,N/A,,Clear,40,2012-11-20 02:55:00
6:55 PM,4.1,-4.7,67,30.34,10.0,NNE,17.3,-,N/A,,Clear,30,2012-11-20 03:55:00
7:55 PM,3.9,-6.5,62,30.34,10.0,NNE,16.1,-,N/A,,Clear,30,2012-11-20 04:55:00
8:55 PM,4.5,-6.3,61,30.35,10.0,NNE,16.1,-,N/A,,Clear,30,2012-11-20 05:55:00
9:55 PM,4.8,-6.7,59,30.33,10.0,NE,15.0,-,N/A,,Clear,40,2012-11-20 06:55:00
10:55 PM,11.7,-8.1,41,30.33,10.0,NNE,3.5,-,N/A,,Clear,30,2012-11-20 07:55:00
11:55 PM,12.9,-1.1,54,30.33,10.0,SW,1.2,-,N/A,,Clear,230,2012-11-20 08:55:00